Regional Weather Roundup
Issued by NWS

Home | Current Version | Previous Version | Graphics & Text | Print | Product List | Glossary On
Versions: 1 2 3 4 5 6 7 8 9 10 11 12 13 14 15 16 17 18 19 20 21 22 23 24 25 26 27 28 29 30 31 32 33 34 35 36 37 38 39 40 41 42 43 44 45 46 47 48 49 50
451
ASUS45 KTFX 102310
RWRMT
MONTANA REGIONAL WEATHER ROUNDUP
NATIONAL WEATHER SERVICE GREAT FALLS MT
400 PM MST WED FEB 10 2016

NOTE: "FAIR" INDICATES FEW OR NO CLOUDS BELOW 12000 FEET WITH NO
SIGNIFICANT WEATHER AND/OR OBSTRUCTIONS TO VISIBILITY.

MTZ001>007-043-110000-
WEST OF THE DIVIDE

CITY           SKY/WX    TMP DP  RH WIND       PRES   REMARKS
KALISPELL      CLOUDY    39  30  70 CALM      30.18F
MISSOULA       PTSUNNY   37  31  78 CALM      30.21F
BUTTE          CLOUDY    36  24  62 S3        30.22F
MULLAN PASS    CLOUDY    41  26  55 VRB6      30.23S
ANACONDA         N/A     46  27  46 NE3       30.20S
DEER LODGE       N/A     46  30  53 CALM      30.21F
HAMILTON         N/A     48  32  53 N5        30.20R
LIBBY            N/A     39  30  70 CALM      30.21S
PLAINS           N/A     44  35  70 CALM      30.18F
$$

MTZ008-052>055-110000-
SOUTHWEST MONTANA

CITY           SKY/WX    TMP DP  RH WIND       PRES   REMARKS
BOZEMAN        CLOUDY    38  28  67 CALM      30.20F
DILLON         CLOUDY    44  28  53 S16       30.21F
ENNIS          SUNNY     50  25  37 S18G26    30.28R
THREE FORKS      N/A     44  21  40 NE3       30.17
TWIN BRIDGES     N/A     39  27  62 NE1       30.19S
$$

MTZ009-010-012-014-046-048-049-054-110000-
EAST SLOPES AND CENTRAL MONTANA

CITY           SKY/WX    TMP DP  RH WIND       PRES   REMARKS
CUT BANK       PTSUNNY   52  27  38 SW17      30.02F
GREAT FALLS    MOSUNNY   55  26  32 SW16      30.06F
MALMSTROM AFB  MOSUNNY   56  26  31 SW18G24   30.06F
HELENA         CLOUDY    48  30  49 N3        30.17F
CHOTEAU          N/A     59  18  20 W17       30.07S
CONRAD           N/A     53  34  48 S6        30.07S
$$

MTZ011-013-016-021-045-047-050-051-110000-
NORTH CENTRAL MONTANA

CITY           SKY/WX    TMP DP  RH WIND       PRES   REMARKS
HAVRE          MOSUNNY   48  33  56 E9        30.06S
LEWISTOWN      CLOUDY    46  31  55 CALM      30.07F
N BAR RANCH      N/A     50  25  37 NW8       30.10S
CHINOOK          N/A     46  34  61 E13       30.08S
$$

MTZ017>020-022>027-061-062-110000-
NORTHEAST MONTANA

CITY           SKY/WX    TMP DP  RH WIND       PRES   REMARKS
GLASGOW        CLOUDY    34  27  75 N12       30.13R WCI  25
JORDAN           N/A     39  32  76 NE13      30.11R WCI  31
SIDNEY         CLOUDY    36  27  69 N14       30.12R WCI  27
WOLF POINT     CLOUDY    38  27  64 N13       30.14R WCI  30
PLENTYWOOD       N/A     30  27  86 N13       30.11R WCI  20
POPLAR           N/A     34  27  75 N14G20    30.13S WCI  24
SCOBEY           N/A     30  19  63 N13       30.09R WCI  20
$$

MTZ028>42-056>058-110000-
SOUTHCENTRAL AND SOUTHEAST MONTANA

CITY           SKY/WX    TMP DP  RH WIND       PRES   REMARKS
BAKER          SUNNY     43  30  60 N16       30.07R
BILLINGS       CLOUDY    61  21  21 NW17G29   30.08R
LIVINGSTON     SUNNY     59  16  18 W22       30.14F
MILES CITY     SUNNY     46  32  58 N10       30.08R
FORSYTH          N/A     48  32  53 N9        30.09R
LAUREL           N/A     62  21  20 NW6       30.07R
ROUNDUP          N/A     54  25  32 NE5       29.99S
$$

REGIONAL REPORTS...DAKOTAS

CITY           SKY/WX    TMP DP  RH WIND       PRES   REMARKS
WILLISTON      CLOUDY    29  24  82 N12       30.12R WCI  19
MINOT          CLOUDY    15   6  67 NE5       30.15R HAZE
DICKINSON      CLOUDY    31  25  78 N15       30.05R WCI  20
BEACH          CLOUDY    32  32 100 N13       30.11R WCI  22
CROSBY         CLOUDY    23  23 100 NE9       30.14S WCI  13
TIOGA          CLOUDY    23  23 100 N7        30.15R WCI  15
WATFORD CITY   CLOUDY    30  25  80 N12       30.10R WCI  21
BISMARCK       CLOUDY    24  15  68 NE9       30.12R WCI  14
GRAND FORKS    CLOUDY    10  -1  61 NE7       30.25R WCI  -1
FARGO          CLOUDY    12   2  64 N12       30.21R WCI  -2
BUFFALO SD       N/A     48  31  51 N16       29.96R
RAPID CITY     SUNNY     59  23  25 NW24G31   29.97R
$$

REGIONAL REPORTS...WYOMING/IDAHO/WASHINGTON

CITY           SKY/WX    TMP DP  RH WIND       PRES   REMARKS
GILLETTE       CLOUDY    54  24  31 NW16      30.06R
SHERIDAN       MOSUNNY   59  21  23 NW15      30.02S
BUFFALO WY     SUNNY     53  24  32 N14G23    30.09R
CODY           CLOUDY    57  18  21 SW13G21   30.13R
YELLOWSTONE LA   N/A     38  22  52 MISG      30.33R
IDAHO FALLS    CLOUDY    25  21  85 N6        30.40R WCI  18
SALMON         CLOUDY    21  19  93 CALM      30.38F
BOISE          MOSUNNY   42  31  64 CALM      30.38F
SPOKANE        CLOUDY    40  34  79 E3        30.22S
$$

REGIONAL REPORTS...ALBERTA

CITY           SKY/WX    TMP DP  RH WIND       PRES   REMARKS
EDMONTON       CLOUDY    32  25  74 E10       30.08F WCI  24
CALGARY        PTSUNNY   39  30  70 SE12      29.98F WCI  32
LETHBRIDGE     PTSUNNY   43  32  65 VRB5      30.00F
MEDICINE HAT   PTSUNNY   37  34  87 E14       30.05F WCI  29
WATERTON GATE    N/A     55  23  28 SW16G24     N/A
ONEFOUR          N/A     48  34  57 E10         N/A
$$

REGIONAL REPORTS...SASKATCHEWAN

CITY           SKY/WX    TMP DP  RH WIND       PRES   REMARKS
SWIFT CURRENT  SNOW      27  27 100 E10       30.09F VSB 3/8 WCI  17
REGINA         CLOUDY    19  16  86 N10       30.15R WCI   8
SASKATOON      CLOUDY    21  18  86 N10       30.22R WCI  10
CYPRESS HILLS    N/A     36  28  75 SE3         N/A
VAL MARIE        N/A     34  27  75 N8          N/A  WCI  27
ROCKGLEN         N/A     28  25  86 N13G20      N/A  WCI  18
ASSINIBOIA       N/A     28  23  80 E9          N/A  WCI  20
$$




USA.gov is the U.S. government's official web portal to all federal, state and local government web resources and services.